Regional Weather Roundup
Issued by NWS

Home | Current Version | Previous Version | Graphics & Text | Print | Product List | Glossary On
Versions: 1 2 3 4 5 6 7 8 9 10 11 12 13 14 15 16 17 18 19 20 21 22 23 24 25 26 27 28 29 30 31 32 33 34 35 36 37 38 39 40 41 42 43 44 45 46 47 48 49 50
000
ASUS43 KIND 290809
RWRIN

WEATHER ROUNDUP FOR INDIANA
NATIONAL WEATHER SERVICE INDIANAPOLIS IN
400 AM EDT FRI AUG 29 2014

NOTE: "FAIR" INDICATES FEW OR NO CLOUDS BELOW 12,000 FEET WITH NO
SIGNIFICANT WEATHER AND/OR OBSTRUCTIONS TO VISIBILITY.

* - STATION DOES NOT REPORT WEATHER SUCH AS PRECIPITATION OR FOG.

+ - STATION NOT QUALITY CONTROLLED BY THE NATIONAL WEATHER SERVICE.
    USE DATA WITH CAUTION...ESPECIALLY DEWPOINT AND RELATIVE
    HUMIDITY OBSERVATIONS.

INZ001>003-010>013-019-020-290900-
NORTHWEST INDIANA

CITY           SKY/WX    TMP DP  RH WIND       PRES   REMARKS
GARY /AIRPORT/ CLOUDY    72  65  79 SE8       29.99S
KNOX *+        MOCLDY    68  61  78 SE9       30.01F
LA PORTE +     MOCLDY    67  62  83 SE5       30.02F
MICHIGAN CITY+ MOCLDY    70  59  68 SE7       30.01F
MONTICELLO +   MOCLDY    67  64  90 E5        30.01F
RENSSELAER +   CLOUDY    70  66  88 SE8       30.01S
VALPARAISO     CLOUDY    68  62  81 SE6       30.02F

$$

LMZ046-743>745-290900-
SOUTHERN LAKE MICHIGAN

STATION/POSITION TIME  TEMP WIND        PRES
                       AIR  DIR/SP/G
                 (UTC) (F)  (DEG/KT/KT) (MB)
MICHIGAN CITY    0800   71  130/ 15/ 20   N/A

$$

INZ004-005-014>016-021>024-290900-
NORTH CENTRAL INDIANA

CITY           SKY/WX    TMP DP  RH WIND       PRES   REMARKS
GOSHEN         MOCLDY    66  59  78 SE12      30.05F
LOGANSPORT +   MOCLDY    64  61  88 SE6       30.04F
PERU/GRISSOM   MOCLDY    66  66 100 SE8       30.04F
ROCHESTER +    MOCLDY    68  63  83 SE8       30.04F
SOUTH BEND     MOCLDY    68  61  78 SE12      30.03F
WARSAW +       MOCLDY    63  61  94 SE5       30.05F

$$

INZ006>009-017-018-025>027-290900-
NORTHEAST INDIANA

CITY           SKY/WX    TMP DP  RH WIND       PRES   REMARKS
ANGOLA *+      PTCLDY    61  55  82 SE7       30.08F
AUBURN +       MOCLDY    63  55  77 E5        30.09S
FORT WAYNE     MOCLDY    62  58  86 E7        30.08F
HUNTINGTON +   MOCLDY    62  60  95 E5        30.06F

$$

INZ028-029-035-036-043>045-051>053-290900-
WEST CENTRAL INDIANA

CITY           SKY/WX    TMP DP  RH WIND       PRES   REMARKS
GREENCASTLE +  CLOUDY    68  64  88 CALM      30.04R
LAFAYETTE      CLOUDY    68  65  90 E7        30.01S
TERRE HAUTE    MOCLDY    72  68  87 SE3       30.00F

$$

INZ030>032-037>040-046>048-054>057-064-065-290900-
CENTRAL INDIANA

CITY           SKY/WX    TMP DP  RH WIND       PRES   REMARKS
CP ATTERBURY + MOCLDY    66  63  88 E3        30.05S
FRANKFORT +    CLOUDY    67  67 100 SE7       30.04F
GREENWOOD *+   MOCLDY    70  64  83 SE6       30.05
INDIANAPOLIS   CLOUDY    70  61  73 SE8       30.03
-EAGLE CREEK   CLOUDY    70  60  70 SE6       30.03F
KOKOMO *+      MOCLDY    64  61  88 SE6       30.05S
MARION +       MOCLDY    64  60  86 SE7       30.06F
MT COMFORT *+  CLOUDY    66  66 100 SE5       30.05S
SHELBYVILLE    MOCLDY    68  62  81 E5        30.04S
ZIONSVILLE +   CLOUDY    68  62  79 CALM      30.05F

$$

INZ033-034-041-042-049-050-058-059-290900-
EAST CENTRAL INDIANA

CITY           SKY/WX    TMP DP  RH WIND       PRES   REMARKS
MUNCIE         MOCLDY    66  60  81 SE6       30.06F

$$

INZ060-061-067>069-081>083-085>088-290900-
SOUTHWEST INDIANA

CITY           SKY/WX    TMP DP  RH WIND       PRES   REMARKS
EVANSVILLE     CLEAR     73  71  93 N3        29.99F
WASHINGTON +   CLOUDY    74  73  96 SE3       29.99F

$$

INZ062-063-066-070>080-084-089>092-290900-
SOUTH CENTRAL AND SOUTHEAST INDIANA

CITY           SKY/WX    TMP DP  RH WIND       PRES   REMARKS
BLOOMINGTON    MOCLDY    72  67  84 SE5       30.03F
NORTH VERNON + MOCLDY    70  64  83 E3        30.05

$$



USA.gov is the U.S. government's official web portal to all federal, state and local government web resources and services.